Hot Springs, VA

8:09 AM EST on February 19, 2017 (GMT -0500)
Ingalls

Weather History for KHSP - March, 2014

Change the Weather History Date:

Saturday, March 8, 2014

  Actual Average Record
Temperature  
Mean Temperature 42 °F -  
Max Temperature 50 °F 39 °F 66 °F (2009)
Min Temperature 35 °F 24 °F 5 °F (1999)
Degree Days  
Heating Degree Days 22    
Moisture  
Dew Point 30 °F    
Average Humidity 64    
Maximum Humidity 81    
Minimum Humidity 40    
Precipitation  
Precipitation 0.00 in - - ()
Sea Level Pressure  
Sea Level Pressure 29.99 in    
Wind  
Wind Speed 14 mph (West)    
Max Wind Speed 22 mph    
Max Gust Speed 30 mph    
Visibility 9 miles    
Events      
Averages and records for this station are not official NWS values.
T = Trace of Precipitation, MM = Missing Value Source: NWS Daily Summary

Daily Weather History Graph

Daily Weather History Graph

Search for Another Location

Airport or City:

Trip Planner

Search our weather history database for the weather conditions in past years. The results will help you decide how hot, cold, wet, or windy it might be!

Date:

Astronomy

Mar. 08, 2014 Rise Set
Actual Time 6:40 AM EST 6:19 PM EST
Civil Twilight 6:14 AM EST 6:46 PM EST
Nautical Twilight 5:44 AM EST 7:16 PM EST
Astronomical Twilight 5:13 AM EST 7:47 PM EST
Moon 11:26 AM EST (3/8) 1:10 AM EST (3/8)
Length of Visible Light 12h 31m
Length of Day
11h 38m
First Quarter, 51% of the Moon is Illuminated
Mar 8
First Quarter
Mar 16
Full
Mar 23
Last Quarter
Mar 30
New
Apr 7
First Quarter

Hourly Weather History & Observations

Time (EST) Temp. Windchill Dew Point Humidity Pressure Visibility Wind Dir Wind Speed Gust Speed Precip Events Conditions
12:15 AM 37.4 °F 28.9 °F 30.2 °F 75% 29.95 in 10.0 mi WNW 13.8 mph 19.6 mph N/A   Clear
12:35 AM 37.4 °F 29.8 °F 30.2 °F 75% 29.96 in 10.0 mi WNW 11.5 mph - N/A   Clear
12:55 AM 37.4 °F 31.4 °F 30.2 °F 75% 29.95 in 10.0 mi WNW 8.1 mph - N/A   Clear
1:15 AM 37.4 °F 31.4 °F 30.2 °F 75% 29.96 in 10.0 mi WNW 8.1 mph - N/A   Clear
1:35 AM 37.4 °F 30.8 °F 30.2 °F 75% 29.96 in 10.0 mi WNW 9.2 mph - N/A   Clear
1:55 AM 37.4 °F 29.8 °F 30.2 °F 75% 29.97 in 10.0 mi WNW 11.5 mph - N/A   Clear
2:15 AM 37.4 °F 30.3 °F 30.2 °F 75% 29.97 in 10.0 mi West 10.4 mph - N/A   Clear
2:35 AM 37.4 °F 30.3 °F 30.2 °F 75% 29.96 in 10.0 mi West 10.4 mph - N/A   Clear
2:55 AM 35.6 °F 28.0 °F 30.2 °F 81% 29.96 in 10.0 mi West 10.4 mph - N/A   Clear
3:15 AM 35.6 °F 27.5 °F 30.2 °F 81% 29.96 in 10.0 mi WNW 11.5 mph - N/A   Clear
3:35 AM 35.6 °F 28.0 °F 30.2 °F 81% 29.96 in 10.0 mi West 10.4 mph - N/A   Clear
3:55 AM 35.6 °F 27.1 °F 30.2 °F 81% 29.97 in 10.0 mi West 12.7 mph - N/A   Clear
4:15 AM 35.6 °F 25.9 °F 30.2 °F 81% 29.97 in 10.0 mi WNW 16.1 mph - N/A   Clear
4:35 AM 37.4 °F 28.5 °F 30.2 °F 75% 29.97 in 10.0 mi WNW 15.0 mph 23.0 mph N/A   Clear
4:55 AM 37.4 °F 29.3 °F 30.2 °F 75% 29.97 in 10.0 mi West 12.7 mph - N/A   Clear
5:15 AM 35.6 °F 26.6 °F 30.2 °F 81% 29.98 in 10.0 mi West 13.8 mph - N/A   Clear
5:35 AM 37.4 °F 28.5 °F 30.2 °F 75% 29.98 in 10.0 mi West 15.0 mph - N/A   Clear
5:55 AM 37.4 °F 27.8 °F 30.2 °F 75% 29.98 in 10.0 mi West 17.3 mph - N/A   Clear
6:15 AM 35.6 °F 25.2 °F 30.2 °F 81% 29.99 in 10.0 mi West 18.4 mph - N/A   Clear
6:35 AM 35.6 °F 25.2 °F 30.2 °F 81% 29.99 in 10.0 mi West 18.4 mph 26.5 mph N/A   Clear
6:50 AM 35.6 °F 25.2 °F 30.2 °F 81% 30.00 in 10.0 mi West 18.4 mph - N/A   Clear
7:15 AM 37.4 °F 28.5 °F 32.0 °F 81% 30.00 in 10.0 mi West 15.0 mph 19.6 mph N/A   Clear
7:35 AM 37.4 °F 28.5 °F 32.0 °F 81% 30.01 in 10.0 mi West 15.0 mph - N/A   Clear
7:55 AM 37.4 °F 28.5 °F 32.0 °F 81% 30.01 in 10.0 mi West 15.0 mph - N/A   Clear
8:15 AM 37.4 °F 28.2 °F 32.0 °F 81% 30.01 in 10.0 mi West 16.1 mph - N/A   Clear
8:35 AM 39.2 °F 30.8 °F 33.8 °F 81% 30.02 in 10.0 mi West 15.0 mph - N/A   Clear
8:55 AM 39.2 °F 29.8 °F 33.8 °F 81% 30.02 in 10.0 mi West 18.4 mph 25.3 mph N/A   Clear
9:15 AM 39.2 °F 30.2 °F 33.8 °F 81% 30.02 in 10.0 mi West 17.3 mph 26.5 mph N/A   Clear
9:35 AM 39.2 °F 30.2 °F 33.8 °F 81% 30.02 in 10.0 mi West 17.3 mph 21.9 mph N/A   Clear
9:55 AM 39.2 °F 30.8 °F 33.8 °F 81% 30.02 in 10.0 mi West 15.0 mph 20.7 mph N/A   Clear
10:15 AM 39.2 °F 30.5 °F 33.8 °F 81% 30.02 in 10.0 mi West 16.1 mph 20.7 mph N/A   Clear
10:35 AM 39.2 °F 29.8 °F 32.0 °F 75% 30.02 in 10.0 mi West 18.4 mph 25.3 mph N/A   Clear
10:55 AM 39.2 °F 29.8 °F 32.0 °F 75% 30.01 in 10.0 mi West 18.4 mph 25.3 mph N/A   Clear
11:10 AM 41.0 °F 31.9 °F 32.0 °F 70% 30.01 in 10.0 mi West 19.6 mph 25.3 mph N/A   Clear
11:35 AM 42.8 °F 34.0 °F 32.0 °F 66% 30.01 in 10.0 mi West 20.7 mph 26.5 mph N/A   Clear
11:55 AM 44.6 °F 36.1 °F 32.0 °F 61% 30.01 in 10.0 mi West 21.9 mph 26.5 mph N/A   Clear
12:15 PM 44.6 °F 37.4 °F 32.0 °F 61% 30.01 in 10.0 mi West 16.1 mph 20.7 mph N/A   Clear
12:35 PM 46.4 °F 39.0 °F 30.2 °F 53% 30.01 in 10.0 mi West 19.6 mph 25.3 mph N/A   Clear
12:55 PM 46.4 °F 40.1 °F 30.2 °F 53% 30.00 in 10.0 mi West 15.0 mph 23.0 mph N/A   Clear
1:15 PM 46.4 °F 39.8 °F 30.2 °F 53% 29.99 in 10.0 mi WNW 16.1 mph 25.3 mph N/A   Clear
1:35 PM 46.4 °F 41.5 °F 32.0 °F 57% 29.99 in 10.0 mi West 10.4 mph 21.9 mph N/A   Clear
1:55 PM 48.2 °F - 32.0 °F 54% 29.99 in 10.0 mi West 17.3 mph - N/A   Clear
2:15 PM 48.2 °F - 30.2 °F 50% 29.98 in 10.0 mi WNW 13.8 mph - N/A   Clear
2:35 PM 50.0 °F - 30.2 °F 47% 29.98 in 10.0 mi West 15.0 mph 21.9 mph N/A   Clear
2:55 PM 48.2 °F - 28.4 °F 46% 29.98 in 7.0 mi West 17.3 mph 24.2 mph N/A   Mostly Cloudy
3:15 PM 48.2 °F - 28.4 °F 46% 29.98 in 7.0 mi West 17.3 mph 23.0 mph N/A   Mostly Cloudy
3:35 PM 48.2 °F - 28.4 °F 46% 29.98 in 7.0 mi West 18.4 mph 21.9 mph N/A   Scattered Clouds
3:55 PM 50.0 °F - 28.4 °F 43% 29.98 in 7.0 mi West 15.0 mph 24.2 mph N/A   Clear
4:15 PM 50.0 °F - 28.4 °F 43% 29.98 in 7.0 mi WNW 13.8 mph 23.0 mph N/A   Clear
4:35 PM 50.0 °F - 26.6 °F 40% 29.99 in 7.0 mi West 11.5 mph 24.2 mph N/A   Clear
4:55 PM 48.2 °F - 26.6 °F 43% 29.98 in 7.0 mi West 19.6 mph 26.5 mph N/A   Clear
5:15 PM 48.2 °F - 26.6 °F 43% 29.99 in 10.0 mi West 17.3 mph 23.0 mph N/A   Clear
5:35 PM 46.4 °F 39.5 °F 26.6 °F 46% 30.00 in 7.0 mi West 17.3 mph 24.2 mph N/A   Clear
5:55 PM 48.2 °F - 26.6 °F 43% 30.01 in 10.0 mi West 15.0 mph 23.0 mph N/A   Clear
6:15 PM 46.4 °F 40.7 °F 26.6 °F 46% 30.01 in 5.0 mi West 12.7 mph 24.2 mph N/A   Haze
6:35 PM 46.4 °F 41.5 °F 26.6 °F 46% 30.01 in 7.0 mi West 10.4 mph 16.1 mph N/A   Clear
6:55 PM 44.6 °F 39.7 °F 28.4 °F 53% 30.02 in 7.0 mi West 9.2 mph - N/A   Mostly Cloudy
7:15 PM 44.6 °F 39.2 °F 26.6 °F 49% 30.02 in 10.0 mi West 10.4 mph - N/A   Mostly Cloudy
7:35 PM 44.6 °F 39.2 °F 26.6 °F 49% 30.02 in 10.0 mi West 10.4 mph 16.1 mph N/A   Scattered Clouds
7:55 PM 42.8 °F 36.6 °F 28.4 °F 57% 30.02 in 10.0 mi West 11.5 mph - N/A   Clear
8:15 PM 42.8 °F 37.0 °F 26.6 °F 53% 30.01 in 10.0 mi West 10.4 mph 16.1 mph N/A   Clear
8:35 PM 42.8 °F 36.2 °F 26.6 °F 53% 30.01 in 10.0 mi West 12.7 mph - N/A   Clear
8:55 PM 42.8 °F 36.2 °F 26.6 °F 53% 30.00 in 10.0 mi West 12.7 mph 18.4 mph N/A   Clear
9:15 PM 42.8 °F 35.4 °F 26.6 °F 53% 30.00 in 10.0 mi West 15.0 mph 19.6 mph N/A   Clear
9:35 PM 42.8 °F 35.4 °F 26.6 °F 53% 30.00 in 10.0 mi West 15.0 mph - N/A   Clear
9:55 PM 42.8 °F 35.1 °F 26.6 °F 53% 29.99 in 10.0 mi West 16.1 mph - N/A   Clear
10:15 PM 42.8 °F 35.4 °F 26.6 °F 53% 29.99 in 10.0 mi West 15.0 mph 19.6 mph N/A   Clear
10:30 PM 42.8 °F 34.8 °F 26.6 °F 53% 29.99 in 7.0 mi West 17.3 mph 20.7 mph N/A   Clear
10:55 PM 42.8 °F 34.5 °F 26.6 °F 53% 29.98 in 7.0 mi West 18.4 mph 27.6 mph N/A   Scattered Clouds
11:15 PM 42.8 °F 34.3 °F 26.6 °F 53% 29.98 in 10.0 mi West 19.6 mph 29.9 mph N/A   Scattered Clouds
11:35 PM 42.8 °F 34.5 °F 26.6 °F 53% 29.98 in 7.0 mi West 18.4 mph 24.2 mph N/A   Mostly Cloudy
11:55 PM 41.0 °F 31.6 °F 26.6 °F 57% 29.98 in 7.0 mi West 20.7 mph 27.6 mph N/A   Scattered Clouds